Lapse_Rate
7.0 7.1 7.3 7.4 7.3 7.3 6.9 6.6 6.6 6.7 6.6 6.6 6.5 6.5 6.6 7.2 7.6 7.5 7.4 7.3 7.1 7.5 7.9 7.8 7.6 8.3 8.4 8.4 8.3 8.4 8.5 8.3 7.5 7.6 7.8 7.8 8.1 8.4 8.0 7.8 7.8 8.1 8.1 7.8 7.1
7.0 7.2 7.3 7.3 7.3 7.1 7.0 6.6 6.5 6.6 6.6 6.6 6.7 6.6 6.5 7.0 7.5 7.8 7.3 7.4 7.2 7.1 7.6 8.1 7.4 8.3 8.3 8.6 8.3 7.9 8.3 8.0 8.0 8.0 8.5 8.7 8.6 8.4 8.4 8.1 7.9 7.9 8.0 7.8 7.4
7.1 7.2 7.2 7.5 7.6 7.5 7.1 6.8 6.5 6.7 6.7 6.8 6.7 6.7 6.6 6.9 7.2 7.7 7.4 7.3 7.2 7.2 7.3 7.8 7.7 8.3 8.1 8.5 8.5 8.2 8.8 8.6 8.5 8.2 8.2 8.6 8.3 8.7 8.5 8.4 8.4 8.0 7.8 7.9 7.7
7.0 7.1 7.4 7.6 7.8 7.7 7.8 7.1 6.8 6.6 6.9 6.8 6.9 6.9 6.7 6.8 6.9 7.2 7.5 7.4 7.3 7.4 7.6 7.7 8.0 8.2 8.4 8.4 8.3 8.2 8.7 8.5 8.5 8.9 8.4 8.5 8.5 8.7 8.5 8.6 8.4 8.0 8.0 7.9 7.9
7.0 7.1 7.4 7.6 7.9 8.0 7.9 7.8 7.2 6.7 6.8 6.8 7.0 7.2 6.9 7.0 6.9 7.2 7.1 7.3 7.5 7.5 7.7 8.0 8.5 8.0 8.2 8.3 8.3 8.5 8.8 8.7 8.4 8.4 8.5 8.8 8.6 8.5 8.8 8.6 8.5 8.3 8.0 7.8 7.7
6.9 7.1 7.4 7.6 7.9 8.0 8.1 7.9 7.8 7.1 6.9 7.1 7.2 7.4 7.2 6.9 7.0 7.3 7.3 7.4 7.6 7.7 7.7 8.0 8.0 7.6 8.3 8.5 8.5 8.7 8.8 8.9 8.9 9.0 8.5 8.5 8.5 8.3 8.5 8.5 8.6 8.4 8.0 7.8 7.7
6.9 7.1 7.3 7.5 7.8 8.0 8.1 8.1 8.0 7.4 7.3 7.1 7.4 7.5 7.3 6.8 7.4 7.9 7.5 7.6 7.5 7.6 7.7 7.9 7.9 8.0 7.8 8.6 8.9 8.8 8.5 9.0 9.2 9.2 9.2 8.3 7.9 8.6 8.3 8.3 8.6 8.6 8.0 7.6 7.7
6.9 7.0 7.2 7.4 7.6 8.0 8.2 8.2 8.1 7.9 7.8 7.4 7.5 7.6 7.6 7.3 7.7 7.9 7.5 7.5 7.7 7.7 7.8 7.9 8.0 7.6 8.5 8.8 8.8 8.6 8.3 8.8 9.2 9.2 9.1 8.3 8.5 8.7 8.6 8.4 8.1 8.5 8.2 8.1 8.1
6.8 7.0 7.2 7.3 7.6 7.9 8.2 8.3 8.2 8.3 7.9 7.7 7.7 7.7 7.9 7.6 7.5 7.5 7.8 7.7 7.6 7.5 7.6 7.6 7.4 7.4 8.2 8.7 9.1 8.9 8.7 9.1 9.0 8.9 8.8 8.5 8.7 8.5 8.6 8.6 8.5 8.5 8.8 8.5 8.5
6.7 7.0 7.2 7.3 7.6 7.8 7.9 8.2 8.1 8.0 8.1 8.0 7.9 8.0 8.1 7.7 7.9 7.6 7.9 7.7 7.5 7.4 7.4 7.4 7.6 7.7 7.9 8.6 9.1 9.1 8.9 8.6 8.8 8.9 8.7 9.0 9.1 8.6 8.4 8.1 8.7 8.6 8.9 8.7 8.4
6.7 6.9 7.1 7.3 7.5 7.7 7.7 8.0 7.7 7.6 7.6 8.1 8.2 8.4 8.4 8.0 8.1 8.0 7.8 7.7 7.5 7.5 7.5 7.4 7.4 7.5 7.8 8.7 8.7 8.9 8.8 8.8 9.1 9.1 8.5 8.8 9.1 9.1 8.9 8.2 8.4 8.7 9.0 8.9 8.6
6.7 6.8 7.0 7.2 7.4 7.6 7.6 7.5 7.5 7.6 8.0 8.2 8.4 8.4 8.9 8.1 8.2 8.3 7.9 7.7 7.6 7.5 7.5 7.4 7.2 7.9 8.1 8.4 8.7 8.8 8.8 9.0 8.9 8.5 9.3 9.3 9.3 9.4 9.1 9.3 9.2 9.1 9.0 9.0 8.7
7.1 7.0 6.9 7.1 7.3 7.5 7.3 7.4 7.3 7.4 7.6 8.6 8.3 8.4 8.9 8.1 8.5 8.6 8.1 8.0 7.7 7.5 7.4 7.4 8.0 7.7 8.0 8.6 8.8 9.0 8.9 9.1 9.0 9.0 9.0 9.2 9.3 9.4 9.2 9.3 9.3 8.8 8.8 8.7 8.5
7.1 7.3 7.2 7.1 7.2 7.4 7.3 7.3 7.5 7.6 7.2 7.9 8.6 8.5 8.8 8.5 8.3 8.9 8.6 8.3 7.9 7.7 7.6 7.5 8.1 7.9 8.2 8.6 9.1 9.2 9.3 9.1 9.0 8.7 8.8 9.0 8.7 9.2 9.3 9.4 9.4 9.2 8.6 8.8 8.5
7.0 7.2 7.3 7.3 7.3 7.3 7.3 7.4 7.6 7.4 6.5 8.3 8.6 8.7 8.8 8.7 8.9 9.2 9.1 8.5 8.3 8.0 7.7 7.9 8.4 8.2 8.0 8.2 9.0 9.2 9.5 9.5 9.4 9.0 8.7 9.0 8.4 8.8 9.2 9.2 9.3 9.2 8.9 8.8 8.5
7.0 7.2 7.4 7.6 7.5 7.2 7.3 7.4 7.3 7.3 6.7 8.5 8.6 8.8 8.9 8.9 8.8 8.9 9.1 8.6 8.5 8.2 8.0 7.9 8.1 8.3 8.4 8.4 8.8 9.0 9.3 9.4 9.4 8.9 8.0 9.0 8.9 8.8 9.3 9.4 9.2 9.1 9.0 8.8 8.8
7.1 7.2 7.5 7.6 7.5 7.3 7.4 7.2 7.0 6.6 8.0 8.8 8.6 8.6 8.8 8.9 9.0 8.9 8.8 8.6 8.5 8.4 8.3 8.1 8.3 8.2 8.5 8.5 8.8 9.1 9.3 8.9 8.3 7.5 7.5 9.3 8.8 9.3 9.4 9.6 9.2 8.9 9.0 8.9 8.9
7.1 7.3 7.5 7.6 7.5 7.3 7.5 7.1 6.7 7.0 8.3 8.5 8.7 8.6 8.9 9.0 8.9 8.9 8.9 8.8 8.7 8.5 8.5 8.4 8.2 8.5 8.7 8.9 9.1 9.3 9.4 9.1 7.6 6.8 8.2 9.2 9.0 9.4 9.4 9.4 9.1 9.2 8.8 8.6 8.6
7.3 7.4 7.6 7.4 7.4 7.4 7.5 6.9 6.8 7.8 8.0 8.0 8.4 8.7 9.0 8.8 8.8 8.8 8.8 8.9 9.0 8.7 8.6 8.5 8.4 8.6 8.7 8.9 8.9 9.1 9.2 9.2 9.3 8.2 7.9 8.8 9.3 9.4 9.1 9.2 9.1 8.7 8.7 8.9 8.8
7.3 7.3 7.4 7.5 7.3 7.3 7.3 7.1 6.9 8.0 8.2 8.0 8.1 8.5 8.6 8.7 8.7 8.6 9.0 8.9 8.9 9.1 9.1 8.9 8.5 8.8 9.0 9.2 9.2 9.3 9.2 9.0 8.9 7.4 7.5 8.3 8.7 9.1 9.0 9.0 9.1 8.9 9.0 8.9 8.8
7.4 7.2 7.4 7.3 7.1 7.1 6.9 6.7 6.8 8.0 8.2 7.7 7.9 8.0 8.1 8.5 8.6 8.9 9.1 8.8 9.0 9.3 9.2 9.0 8.8 9.0 8.8 9.1 9.4 9.4 9.1 9.1 8.9 8.9 7.2 6.8 8.7 8.9 9.1 9.1 9.1 9.1 8.9 8.8 8.6
7.6 7.0 6.9 6.7 6.9 7.0 6.9 7.0 7.5 8.2 8.0 7.6 7.7 7.9 8.1 8.2 8.5 8.8 8.6 8.6 8.8 8.9 9.3 9.1 9.0 8.8 9.0 9.2 9.3 9.1 9.2 9.2 9.2 8.9 8.6 8.6 9.2 9.1 9.3 9.3 9.3 8.8 8.8 8.5 8.4
7.2 7.0 7.0 6.7 6.8 6.9 6.9 7.0 7.2 7.7 7.7 7.6 7.6 7.9 8.1 8.2 8.3 8.6 8.5 8.6 8.9 8.9 9.0 9.0 9.0 8.8 9.0 9.0 9.2 9.1 9.2 9.0 9.1 9.3 9.0 8.3 9.3 9.3 9.2 8.8 8.9 8.5 8.5 8.6 8.8
7.3 6.8 6.9 6.9 6.9 6.8 6.8 7.2 7.2 7.5 7.7 7.7 7.9 7.7 8.0 8.1 8.3 8.5 8.4 8.5 8.9 8.8 8.7 8.8 9.0 9.2 8.8 9.2 9.2 9.2 9.0 8.8 9.0 9.1 9.0 9.1 9.1 9.4 9.3 9.3 9.4 9.1 8.8 9.0 8.6
7.1 6.8 7.1 6.9 7.1 7.0 6.9 7.4 7.6 7.7 8.0 8.1 8.1 7.7 7.9 7.9 8.2 8.2 8.4 8.4 8.6 8.8 8.8 8.7 8.8 8.9 8.9 8.6 8.7 9.0 9.2 9.0 8.9 8.9 8.8 8.8 9.0 9.2 9.5 9.5 9.4 9.1 9.0 9.0 8.3
7.1 7.3 7.1 6.9 7.0 7.3 7.3 8.0 8.0 7.8 7.8 7.9 8.0 7.9 7.7 7.7 7.8 8.1 8.0 8.2 8.5 8.7 8.9 8.7 8.6 8.7 8.6 8.2 8.3 8.8 8.9 9.0 9.0 8.6 8.6 8.8 9.0 8.9 9.2 9.1 9.1 9.0 8.7 8.7 8.3
7.0 7.4 7.7 7.7 7.4 7.5 7.5 7.8 7.7 7.6 7.7 8.0 8.2 7.9 7.7 7.6 7.8 8.0 7.9 7.9 8.2 8.6 8.5 8.5 8.4 8.6 8.7 8.4 8.3 8.6 8.5 8.7 8.6 8.5 8.4 8.5 8.7 8.9 9.0 8.9 9.0 8.7 8.7 8.6 8.7
Wind_Speed
19 19 20 21 20 21 21 21 21 20 17 18 20 22 21 22 24 3 4 6 7 22 9 8 4 6 3 4 5 3 4 2 4 4 3 7 7 6 2 12 5 5 5 10 14
19 21 21 22 22 22 22 21 21 23 22 20 20 21 19 18 4 5 5 17 24 24 6 8 4 7 3 5 3 3 3 3 3 7 7 7 6 10 6 8 2 6 10 18 17
21 22 23 24 24 24 24 24 23 23 23 22 21 23 19 12 3 5 11 18 25 21 3 3 2 4 4 4 5 4 6 4 8 8 7 4 4 1 11 4 8 17 15 19 15
23 23 24 25 26 26 26 26 25 23 24 23 21 22 21 2 2 2 14 17 19 10 4 3 3 2 3 3 3 3 6 6 6 12 9 5 8 4 9 7 13 18 21 18 15
24 25 26 26 26 27 27 27 27 25 23 22 20 19 6 5 7 5 13 12 8 6 6 4 2 1 2 4 4 5 5 9 10 8 8 7 5 4 7 10 15 15 17 18 15
24 25 26 27 27 27 27 27 27 27 25 20 18 13 2 4 4 10 9 6 5 5 5 4 4 5 5 5 2 4 6 4 12 15 8 7 3 2 2 14 16 16 14 15 17
25 26 27 28 28 28 27 28 29 28 26 19 13 3 1 13 2 5 7 5 3 5 5 5 3 1 2 5 6 5 5 7 6 6 5 5 6 8 5 16 18 18 15 14 15
25 26 28 28 29 30 30 30 32 28 23 15 6 2 7 4 5 5 5 6 4 5 4 7 6 5 4 2 8 6 4 4 3 6 3 6 10 8 9 14 16 17 15 17 16
25 26 28 29 29 30 32 35 32 17 5 6 3 3 9 7 2 6 7 7 1 5 6 4 5 3 5 4 5 5 3 3 1 9 6 5 7 5 7 12 13 15 17 16 14
26 27 28 29 29 30 35 34 15 6 2 3 3 2 5 2 3 4 5 6 5 4 6 3 5 3 4 4 4 5 5 3 6 9 11 12 11 7 9 13 14 13 17 15 14
26 27 28 30 30 28 16 5 5 3 0 6 4 5 5 7 6 3 2 6 4 3 4 4 4 5 9 7 5 3 4 8 6 6 6 11 9 10 17 12 12 14 15 14 16
25 27 29 31 32 29 1 3 5 1 9 9 12 9 11 4 5 9 3 3 4 5 3 4 4 9 3 4 5 6 7 12 8 6 7 13 8 6 13 22 24 21 16 13 7
26 26 28 33 36 3 3 4 5 5 3 8 6 7 6 10 10 12 7 2 4 4 4 6 8 3 3 3 5 5 7 9 10 5 2 2 7 2 5 3 13 9 7 6 11
25 26 26 37 2 5 5 6 12 3 4 8 6 9 7 8 6 8 10 8 2 9 5 6 5 8 6 7 8 4 11 16 9 3 5 4 5 6 3 1 7 9 8 10 8
24 24 23 14 5 4 5 15 8 3 3 5 5 0 2 11 7 6 5 5 9 6 6 11 3 1 4 8 7 11 7 15 10 3 5 3 3 8 3 5 10 10 9 8 7
24 23 21 1 2 7 17 11 3 5 6 7 2 2 5 3 4 3 4 5 4 5 3 9 3 5 7 5 6 3 4 8 6 5 1 7 5 6 4 8 5 7 8 9 11
26 22 13 4 4 4 8 4 4 4 5 6 2 4 3 2 2 6 5 5 6 3 6 4 6 4 4 5 3 5 6 2 2 2 6 4 3 9 7 8 9 12 9 10 10
29 30 6 7 10 3 3 5 4 5 7 6 5 5 2 1 4 4 3 4 3 4 3 5 8 5 4 6 5 2 7 6 5 3 5 4 4 5 3 8 9 5 6 13 14
28 2 3 4 17 2 5 3 8 7 4 7 8 3 6 5 4 3 7 7 8 10 9 6 9 5 5 5 6 2 2 5 7 3 2 3 6 6 6 11 9 13 14 11 13
3 4 4 6 19 4 4 4 4 5 5 5 3 2 4 5 5 3 7 1 6 12 4 7 3 6 5 3 1 6 6 2 3 4 4 5 4 5 4 4 4 8 9 7 4
2 4 3 8 3 5 4 6 5 10 2 3 3 4 4 2 2 2 2 3 0 5 8 6 4 7 3 3 4 2 2 6 6 4 6 1 6 6 6 4 4 5 7 8 9
3 2 2 1 4 1 3 6 4 6 3 5 4 8 6 3 3 2 3 2 8 4 9 9 6 6 11 5 1 2 5 6 5 5 1 4 6 4 7 8 4 4 9 3 10
3 3 3 3 2 2 4 4 5 7 9 5 4 4 1 4 1 2 3 7 8 5 3 6 1 2 10 7 5 2 2 5 5 4 5 6 6 4 5 8 8 9 8 5 8
2 2 3 3 1 5 0 5 5 6 10 6 6 1 2 3 3 2 4 4 7 6 7 8 3 6 8 7 4 3 2 3 4 4 5 6 3 7 9 11 11 10 5 10 11
2 2 2 2 4 4 4 4 6 5 4 8 3 5 5 2 3 2 3 5 4 10 7 4 3 1 3 3 3 4 4 6 4 4 3 4 7 9 17 16 13 9 7 10 14
1 1 4 3 3 3 6 5 8 10 4 0 3 3 3 5 4 3 1 0 1 6 6 5 1 1 2 2 5 1 4 3 4 4 3 4 5 7 6 2 7 9 7 11 7
2 3 3 4 4 2 3 5 4 2 2 2 4 6 6 3 6 6 6 2 4 1 2 3 2 3 3 2 0 5 6 5 5 6 5 3 8 2 5 9 12 10 8 8 6
Wind_Direction
350 346 344 340 337 334 332 333 331 330 330 329 325 320 327 330 316 157 256 189 180 171 135 120 194 190 190 244 196 143 48 344 89 72 236 179 133 169 115 142 191 193 127 147 142
349 345 342 338 336 333 331 330 330 332 331 330 326 321 330 336 316 281 237 147 142 169 150 174 206 169 217 221 169 119 101 169 204 169 224 170 130 162 131 176 38 85 88 134 149
348 345 341 337 336 334 331 330 331 331 326 326 326 323 330 324 326 254 159 142 151 173 200 220 229 179 218 170 196 180 182 203 171 177 214 170 108 209 136 202 183 154 146 152 161
344 343 340 337 335 334 331 328 327 326 323 322 324 323 325 287 155 309 138 147 148 170 170 211 233 195 237 240 170 189 209 188 227 189 184 198 139 187 186 191 162 161 154 156 170
343 341 338 335 333 331 328 325 322 319 317 315 318 329 340 356 255 117 125 134 132 139 177 208 182 247 295 283 302 206 201 192 201 207 209 115 191 216 236 147 147 159 154 166 178
341 339 337 333 331 328 324 320 315 312 309 310 311 323 353 299 270 152 140 145 157 164 177 188 211 175 280 250 209 272 308 238 190 188 194 161 32 33 292 151 150 160 181 178 184
339 338 335 332 329 325 321 315 308 304 302 303 300 276 174 233 124 132 168 187 192 173 179 219 163 165 258 308 296 332 27 360 41 132 165 122 324 228 161 153 158 168 187 197 201
339 336 334 330 327 323 319 312 305 303 299 289 245 213 248 248 306 286 168 274 220 215 244 237 161 214 196 309 357 24 39 35 285 142 171 108 244 239 163 161 170 174 191 205 209
337 335 332 328 325 322 318 309 304 304 279 133 132 171 266 299 229 253 161 211 166 214 236 251 156 195 38 76 0 12 203 232 274 214 136 172 252 202 165 182 176 184 200 207 212
336 334 331 327 324 323 319 303 288 311 138 209 269 359 276 327 318 278 217 160 230 316 353 60 65 99 41 77 210 250 307 243 178 215 188 186 252 149 174 185 187 193 208 203 206
335 333 330 327 323 324 334 352 15 348 93 223 205 258 289 291 308 290 314 138 171 87 257 345 77 227 240 202 205 243 227 269 285 172 148 198 224 186 189 197 200 201 210 207 199
335 332 330 325 320 321 291 29 87 155 299 252 246 252 255 85 299 289 175 186 135 204 138 10 225 236 230 175 197 232 273 270 287 197 189 189 207 229 190 207 204 199 206 205 165
333 332 331 324 318 334 294 239 348 324 216 288 221 226 218 152 207 252 149 168 166 197 210 183 236 59 188 243 207 216 212 261 224 327 307 31 323 347 205 222 225 222 182 208 189
331 331 336 330 25 330 277 304 316 235 46 272 238 259 185 147 264 209 191 157 135 208 187 231 258 224 268 251 159 229 218 241 265 26 270 33 280 307 304 263 235 211 182 202 194
328 329 333 331 299 303 299 318 313 77 335 254 242 244 201 164 190 247 177 105 194 204 122 242 255 179 246 239 150 237 188 215 235 128 13 322 81 273 344 275 246 227 214 200 182
322 323 331 64 259 248 310 308 44 49 248 306 275 245 129 225 198 130 143 74 161 197 228 238 222 182 225 273 182 291 67 39 41 86 79 249 134 287 206 229 253 242 208 188 190
318 313 308 271 238 337 317 32 54 160 317 285 334 353 163 308 294 166 154 140 169 138 275 321 266 247 212 290 16 83 65 3 9 12 213 124 72 237 278 277 232 237 219 193 189
317 311 248 208 241 282 28 58 172 227 256 304 319 314 316 185 226 200 138 220 225 115 124 176 303 181 164 177 228 130 145 153 211 216 258 201 226 263 320 306 265 279 52 80 86
320 326 263 248 196 82 81 128 199 213 275 341 331 25 348 343 204 169 187 215 199 169 173 167 262 277 230 187 128 215 172 185 108 33 42 267 295 340 355 22 63 88 90 94 105
343 337 269 139 154 98 84 227 242 206 357 5 304 5 357 332 23 16 171 240 273 194 163 216 292 218 283 178 182 163 162 80 8 131 241 295 279 234 334 7 352 93 105 100 97
22 351 282 165 132 57 170 224 248 277 14 335 311 302 288 315 272 327 249 204 209 300 145 140 134 254 119 205 211 16 226 56 113 134 163 203 271 180 235 253 222 179 157 141 93
343 342 331 199 69 56 164 195 244 284 84 251 243 219 233 233 314 360 356 275 335 218 165 195 159 237 225 280 269 169 199 140 132 248 108 147 264 110 238 264 215 200 220 152 141
353 276 326 78 135 263 276 269 240 253 254 243 251 240 207 219 211 229 324 289 327 42 134 183 197 263 322 353 8 152 137 102 90 92 188 131 258 164 241 266 223 217 220 130 112
333 355 330 61 139 146 172 275 247 252 239 189 235 212 104 50 355 214 349 300 327 6 52 86 123 159 212 209 168 152 119 113 126 107 163 214 254 265 229 217 225 213 201 156 161
188 250 243 248 277 234 182 261 278 319 233 165 214 213 159 168 21 26 307 319 335 345 28 84 101 203 188 278 269 217 131 150 179 169 149 240 204 232 223 207 211 174 175 166 211
224 347 344 294 296 265 174 246 233 264 240 217 110 100 154 143 175 195 264 23 258 331 31 352 100 98 96 345 309 276 339 79 118 133 111 106 261 212 225 265 288 257 190 180 173
300 306 106 276 301 46 212 263 297 352 301 117 155 108 95 190 204 212 209 218 238 246 10 61 78 50 274 317 121 8 3 31 82 35 129 142 244 132 238 213 235 232 194 203 193